Location: Chervonnoye
(48.6000°N, 34.4000°E)
Time: 20:47:45
(UTC+00:00)

Cosmos 2218 Rocket - Pass Details

Date: 23 November 2020
Orbit: 956 x 1005 km, 82.9° (Epoch: 27 January)

Event Time Altitude Azimuth Distance (km) Brightness Sun altitude
Rises 16:22:59 0° 349° (NNW) 3,659 7.1 -24.1°
Reaches altitude 10° 16:25:30 10° 347° (NNW) 2,705 6.4 -24.5°
Maximum altitude 16:31:38 70° 265° (W) 1,017 4.2 -25.5°
Drops below altitude 10° 16:37:43 10° 183° (S) 2,682 6.3 -26.5°
Sets 16:40:13 0° 181° (S) 3,626 7.0 -26.9°
